Simultaneous Nadir Overpasses (SNOs) Predictions

Prediction of SNOs between GOES-16 and NPP Satellite Orbit:

Table of predicted SNOs for the next 14.0 days since TLE Epoch: 12/1/2024
Index Date Time (GOES-16) GOES-16 Lat,Lon NPP Lat,Lon Distance(km) Time Diff (sec)
1 12/01/2024 06:23:13 0.00, -75.19 -0.04, -74.92 30.81 80
2 12/03/2024 18:26:32 -0.01, -75.21 -0.09, -75.72 57.86 80
3 12/04/2024 18:10:29 -0.01, -75.21 0.91, -71.20 458.09 80
4 12/06/2024 06:32:19 0.01, -75.20 0.29, -76.47 144.63 80
5 12/07/2024 06:10:57 0.01, -75.21 -0.72, -71.95 371.51 80
6 12/08/2024 18:32:57 -0.00, -75.24 -0.45, -77.27 231.54 80
7 12/09/2024 18:16:55 -0.00, -75.25 0.57, -72.75 285.22 80
8 12/11/2024 06:38:45 0.00, -75.25 0.62, -78.03 315.92 80
9 12/12/2024 06:17:23 0.00, -75.26 -0.41, -73.50 200.92 80
10 12/13/2024 18:39:22 -0.00, -75.29 -0.79, -78.82 401.61 80
11 12/14/2024 18:23:19 0.00, -75.31 0.24, -74.30 115.44 80
